Location: Hurstbourne Priors
(51.2000°N, 1.3667°W)
Time: 19:01:14
(UTC+00:00)

Transit 4A - Pass Details

Date: 25 April 2021
Orbit: 870 x 974 km, 66.8° (Epoch: 09 May)

Event Time Altitude Azimuth Distance (km) Brightness Sun altitude
Rises 08:52:03 0° 309° (NW) 3,501 10.4 36.1°
Reaches altitude 10° 08:56:12 10° 282° (WNW) 2,538 9.8 36.6°
Maximum altitude 08:58:25 12° 259° (W) 2,364 9.8 37.0°
Drops below altitude 10° 09:00:39 10° 236° (SW) 2,519 10.0 37.3°
Sets 09:04:45 0° 208° (SSW) 3,446 10.9 37.8°
